sat.trackr.live / text

‹ back to catalog

STARLINK-37611

NORAD 69034 · 2026-101K

PAYLOAD ACTIVE UNKNOWN

§ Identity

Operator
Country
US
Launch date
2026-05-06
Launch site
AFWTR
Launch vehicle
Mass (kg)
RCS (m²)

Purposes: comms

External: N2YO · Heavens-Above · Gunter

§ Orbital elements

Epoch: 2026-05-25T03:29:02.222304Z

Period
91.42 min
Inclination
97.2848°
Eccentricity
0.0001249
Mean motion
15.75224903 rev/d
Perigee alt
343.2 km
Apogee alt
344.8 km
Semi-major
6,722.1 km
B*
7.7767e-4
RAAN
359.9017°
Arg perigee
78.5721°
Mean anomaly
281.5684°
Rev number
301

§ Raw data

STARLINK-376111 69034U 26101K   26145.14516461  .00117652  00000+0  77767-3 0  99962 69034  97.2848 359.9017 0001249  78.5721 281.5684 15.75224903  3018

JSON: /api/v1/satellites/69034 · /tle

For live sub-satellite position, see the globe view (requires WebGL).

§ Visibility from observer

Set your observer location to see the next 7 days of passes ≥ 10°. The values pass through the URL so the page stays shareable.

No JS? Fill the form by hand. The geolocation button needs JavaScript.